Probability
0 3 0 3 10 10 13 16 10 3 3 3 0 0 0 0 0 0 0 0 0 0 0 0 0 3 19 29 35 29 23 16 0 0 0 0 0 0 0 0 0 0 0
3 3 0 0 6 10 16 13 10 6 3 3 0 0 0 0 0 0 0 0 0 0 0 0 0 0 3 6 29 26 19 3 0 0 0 0 0 0 0 0 0 0 0
0 3 6 3 6 10 13 10 3 6 0 0 0 0 0 0 0 0 0 0 0 0 0 0 0 0 0 10 10 13 19 0 0 0 3 3 3 0 0 0 0 0 0
3 3 3 3 13 13 10 3 3 3 3 0 0 0 0 0 0 0 0 0 0 0 0 0 0 0 0 0 0 0 6 6 3 6 6 3 3 0 0 0 0 0 0
0 0 3 3 6 3 19 23 13 16 10 3 3 0 0 0 0 0 3 0 0 0 0 0 0 0 0 0 0 0 0 6 13 6 6 6 3 0 0 0 0 3 6
0 0 0 0 0 0 3 6 10 16 13 16 19 16 13 3 0 0 0 0 0 0 3 0 0 0 0 0 0 0 0 0 0 0 3 0 0 0 0 0 3 0 0
0 0 0 0 0 0 0 0 3 3 6 10 6 19 19 0 0 0 0 6 16 6 6 3 0 0 0 0 0 0 0 0 0 0 0 0 0 0 0 0 0 0 0
0 0 0 0 0 0 0 0 0 3 3 3 6 6 6 0 0 0 0 6 52 16 10 10 0 0 0 0 0 0 0 0 0 0 0 0 0 0 0 0 0 0 0
0 0 0 0 0 0 0 0 0 0 0 0 3 3 3 0 0 0 0 48 65 45 29 13 3 0 0 0 0 0 0 0 0 0 0 0 0 0 0 0 0 0 0
0 0 0 0 0 0 0 0 0 0 0 0 0 0 0 0 0 0 0 48 39 42 26 16 0 0 0 0 0 0 0 0 0 0 0 0 0 0 0 0 0 0 0
0 0 0 0 0 0 0 0 0 0 0 0 0 0 0 0 0 0 0 16 19 19 29 35 16 0 0 0 0 0 0 0 0 0 0 0 0 0 0 0 0 0 0
0 0 0 0 0 0 0 0 0 0 0 0 0 0 0 0 0 0 0 0 0 3 16 13 3 0 0 0 0 0 0 0 0 0 0 0 3 0 0 0 0 0 0
0 0 0 0 0 0 0 0 0 0 0 0 0 0 0 0 0 0 0 0 0 3 0 0 0 0 0 0 0 0 0 0 6 6 6 10 0 0 0 0 0 0 0
0 0 0 0 0 0 0 0 0 0 0 0 0 0 0 0 0 0 0 0 0 0 0 0 0 0 0 0 0 0 0 0 0 0 0 0 0 0 0 0 0 0 0
0 0 0 0 0 0 0 0 0 0 0 0 0 0 0 0 0 0 0 0 0 0 0 0 0 0 0 0 0 0 0 0 0 0 0 0 0 0 0 0 0 0 0
0 0 0 0 0 0 0 0 0 0 0 0 0 0 0 0 0 0 0 0 0 0 0 0 0 0 0 0 0 0 0 0 0 0 0 0 0 0 0 0 0 0 0
0 0 0 0 0 0 0 0 0 0 0 0 0 0 0 0 0 0 0 0 0 0 0 0 0 0 0 0 0 0 0 0 0 0 0 0 0 0 0 0 0 0 0
0 0 0 0 0 0 0 0 0 0 0 0 0 0 0 0 0 0 0 0 0 0 0 0 0 0 0 0 0 0 0 0 0 0 0 0 0 0 0 0 0 0 0
0 0 0 0 0 0 0 0 0 0 0 0 0 0 0 0 0 0 0 0 0 0 0 0 0 0 0 0 0 0 0 0 0 0 0 0 0 0 0 0 0 0 0
0 0 0 0 0 0 0 0 0 0 0 0 0 0 0 0 0 0 0 0 0 0 0 0 0 0 0 0 0 0 0 0 0 0 0 0 0 0 0 0 0 0 0
0 0 0 0 0 0 0 0 0 0 0 0 0 0 0 0 0 0 0 0 0 0 0 0 0 0 0 0 0 0 0 0 0 0 0 0 0 0 0 0 0 0 0
0 0 0 0 0 0 0 0 0 0 0 0 0 0 0 0 0 0 0 0 0 0 0 0 0 0 0 0 0 0 0 0 0 0 0 0 0 0 0 0 0 0 0
0 0 0 0 0 0 0 0 0 0 0 0 0 0 0 0 0 0 0 0 0 0 0 0 0 0 0 0 0 0 0 0 0 0 0 0 0 0 0 0 0 0 0
0 0 0 0 0 0 0 0 0 0 0 0 0 0 0 0 0 0 0 0 0 0 0 0 0 0 0 0 0 0 0 0 0 0 0 0 0 0 0 0 0 0 0
0 0 0 0 0 0 0 0 0 0 0 0 0 0 0 0 0 0 0 0 0 0 0 0 0 0 0 0 0 0 0 0 0 0 0 0 0 0 0 0 0 0 0
0 0 0 0 0 0 0 0 0 0 0 0 0 0 0 0 0 0 0 0 0 0 0 0 0 0 0 0 0 0 0 0 0 0 0 0 0 0 0 0 0 0 0
Height
5788 5789 5790 5790 5791 5792 5793 5795 5797 5799 5802 5805 5806 5807 5807 5807 5807 5806 5806 5805 5804 5803 5802 5802 5801 5800 5800 5799 5799 5798 5798 5799 5800 5802 5804 5805 5807 5810 5812 5814 5816 5818 5820
5783 5784 5785 5785 5787 5788 5790 5793 5795 5796 5798 5800 5801 5801 5801 5801 5800 5800 5799 5798 5798 5797 5796 5796 5795 5795 5795 5794 5793 5793 5793 5794 5795 5796 5798 5800 5802 5805 5807 5809 5811 5813 5815
5780 5781 5783 5784 5785 5787 5788 5791 5792 5793 5794 5795 5795 5795 5795 5795 5794 5794 5793 5792 5792 5791 5790 5790 5790 5789 5789 5789 5789 5789 5789 5789 5790 5791 5793 5795 5796 5799 5801 5804 5806 5808 5810
5780 5781 5782 5783 5784 5786 5787 5788 5789 5789 5790 5790 5790 5790 5789 5789 5788 5787 5787 5786 5786 5785 5785 5784 5784 5784 5784 5784 5784 5784 5784 5785 5785 5786 5788 5789 5791 5793 5795 5798 5800 5802 5804
5780 5781 5782 5783 5783 5784 5784 5785 5785 5785 5785 5785 5785 5784 5783 5783 5782 5782 5781 5780 5780 5779 5779 5779 5778 5779 5779 5779 5779 5780 5780 5780 5781 5781 5783 5784 5786 5787 5789 5791 5793 5795 5798
5781 5781 5782 5782 5782 5782 5782 5782 5781 5781 5780 5780 5779 5778 5777 5777 5777 5776 5775 5774 5773 5772 5772 5772 5772 5773 5773 5773 5774 5775 5775 5776 5777 5777 5778 5779 5780 5781 5782 5784 5786 5788 5791
5781 5781 5781 5781 5780 5780 5779 5778 5777 5776 5775 5774 5773 5772 5771 5770 5770 5769 5768 5767 5767 5766 5765 5765 5766 5766 5767 5767 5768 5769 5770 5771 5772 5773 5774 5774 5776 5776 5777 5778 5779 5781 5783
5781 5780 5780 5779 5778 5777 5776 5774 5773 5771 5769 5768 5766 5765 5764 5763 5762 5762 5761 5760 5760 5759 5759 5759 5759 5759 5760 5761 5762 5763 5764 5765 5767 5768 5769 5770 5770 5772 5772 5773 5773 5774 5775
5780 5779 5778 5776 5775 5773 5772 5770 5768 5765 5763 5761 5760 5758 5757 5756 5755 5754 5754 5753 5752 5752 5752 5752 5753 5753 5754 5755 5756 5757 5759 5759 5761 5762 5763 5764 5765 5766 5767 5768 5768 5769 5769
5779 5777 5776 5774 5772 5770 5767 5765 5762 5760 5757 5755 5753 5751 5750 5748 5747 5747 5746 5746 5745 5745 5745 5746 5746 5747 5748 5749 5750 5752 5753 5754 5755 5757 5758 5759 5760 5760 5761 5762 5762 5763 5762
5778 5776 5774 5771 5769 5766 5764 5761 5758 5754 5751 5749 5746 5744 5743 5741 5740 5739 5739 5738 5738 5738 5738 5739 5740 5741 5742 5743 5745 5746 5748 5749 5750 5752 5753 5753 5754 5755 5755 5756 5756 5756 5756
5778 5775 5773 5770 5767 5764 5761 5757 5754 5750 5747 5744 5741 5739 5737 5735 5734 5732 5732 5731 5731 5731 5731 5732 5734 5735 5737 5739 5740 5742 5743 5745 5746 5747 5748 5749 5749 5750 5750 5750 5750 5750 5750
5779 5776 5774 5771 5767 5764 5760 5756 5752 5748 5744 5740 5737 5734 5732 5729 5728 5726 5725 5724 5723 5723 5724 5725 5727 5729 5732 5734 5736 5738 5740 5741 5743 5743 5744 5745 5745 5745 5745 5745 5744 5744 5743
5781 5779 5775 5772 5768 5764 5760 5755 5751 5746 5742 5738 5734 5731 5728 5725 5723 5721 5719 5718 5717 5716 5717 5718 5720 5723 5727 5730 5733 5735 5737 5738 5739 5740 5740 5741 5741 5740 5740 5740 5739 5738 5737
5784 5781 5778 5774 5770 5766 5761 5756 5751 5746 5741 5737 5733 5729 5726 5723 5720 5717 5715 5713 5712 5711 5711 5713 5716 5719 5723 5726 5729 5732 5734 5735 5736 5737 5737 5737 5737 5736 5735 5735 5733 5732 5731
5787 5784 5781 5777 5773 5768 5764 5758 5753 5748 5743 5739 5734 5730 5726 5723 5719 5716 5713 5711 5709 5709 5709 5711 5714 5717 5720 5723 5726 5729 5731 5733 5733 5734 5734 5734 5733 5733 5731 5730 5729 5727 5725
5791 5787 5784 5780 5776 5772 5767 5762 5757 5752 5748 5743 5739 5734 5730 5726 5722 5718 5715 5712 5711 5710 5710 5712 5714 5717 5720 5723 5726 5728 5730 5731 5732 5732 5732 5731 5731 5729 5728 5726 5724 5721 5719
5793 5790 5787 5783 5779 5775 5771 5766 5762 5758 5753 5748 5744 5740 5735 5731 5728 5724 5721 5718 5717 5716 5716 5716 5718 5720 5723 5725 5727 5729 5730 5731 5731 5731 5731 5730 5728 5727 5724 5722 5719 5716 5712
5796 5793 5790 5786 5782 5779 5775 5771 5767 5763 5759 5754 5750 5746 5742 5738 5735 5731 5729 5727 5725 5724 5724 5724 5725 5726 5727 5729 5730 5731 5732 5732 5731 5731 5729 5728 5726 5724 5722 5719 5715 5712 5707
5798 5796 5792 5789 5786 5782 5779 5775 5772 5768 5765 5761 5757 5754 5750 5746 5743 5740 5738 5736 5734 5733 5732 5732 5732 5733 5733 5734 5734 5734 5734 5733 5732 5731 5729 5727 5725 5723 5720 5716 5713 5709 5704
5801 5798 5795 5792 5789 5786 5783 5780 5776 5773 5770 5767 5764 5760 5757 5754 5752 5749 5747 5745 5743 5742 5741 5740 5739 5739 5739 5738 5738 5737 5736 5735 5734 5732 5730 5728 5725 5722 5719 5715 5711 5706 5701
5803 5800 5798 5795 5792 5789 5786 5783 5781 5778 5775 5772 5769 5767 5764 5762 5759 5757 5755 5753 5751 5749 5748 5747 5746 5744 5744 5743 5741 5740 5739 5737 5735 5733 5731 5728 5725 5722 5718 5714 5710 5705 5700
5805 5803 5800 5798 5795 5792 5789 5787 5784 5781 5779 5776 5774 5772 5769 5767 5765 5763 5761 5759 5757 5755 5753 5752 5750 5749 5747 5746 5744 5743 5741 5739 5737 5735 5732 5729 5726 5722 5718 5714 5710 5705 5699
5807 5805 5802 5800 5797 5795 5792 5790 5787 5784 5782 5780 5777 5775 5773 5771 5769 5767 5765 5764 5762 5760 5758 5756 5754 5752 5750 5748 5747 5745 5743 5741 5738 5736 5733 5730 5727 5723 5719 5715 5710 5705 5699
5808 5806 5804 5802 5799 5797 5794 5792 5789 5787 5784 5782 5780 5778 5776 5774 5772 5771 5769 5767 5765 5763 5761 5759 5757 5755 5753 5751 5749 5746 5744 5742 5739 5737 5734 5731 5727 5723 5719 5715 5710 5705 5700
5808 5806 5805 5803 5801 5798 5796 5794 5791 5789 5786 5784 5782 5780 5778 5777 5775 5773 5771 5770 5768 5766 5764 5762 5760 5758 5756 5753 5751 5748 5746 5743 5740 5737 5734 5731 5728 5724 5720 5715 5711 5706 5700
Wind_Speed
28 29 30 30 27 24 20 17 15 14 15 17 19 20 21 21 22 22 22 21 21 21 21 21 20 20 20 19 20 19 20 21 22 23 24 24 24 25 25 23 22 22 23
13 14 13 12 12 11 10 9 10 10 13 16 18 20 20 20 20 19 19 19 19 20 20 20 19 19 18 18 18 18 18 19 21 22 22 23 24 25 25 25 23 22 21
5 5 6 5 4 4 5 6 8 10 13 15 16 17 18 18 18 18 19 19 19 19 19 20 19 19 18 18 17 18 18 18 20 22 23 24 24 26 27 27 25 24 23
5 4 2 1 1 3 5 7 8 10 12 13 15 17 18 18 19 19 20 20 20 20 20 20 20 20 19 18 17 17 18 17 18 19 21 23 23 25 27 28 29 28 27
4 3 3 3 4 5 6 7 9 11 12 14 16 17 18 19 19 20 20 20 20 20 20 21 20 21 20 20 19 18 18 18 19 19 20 21 22 24 26 28 29 31 30
5 5 5 5 6 7 8 9 11 13 15 16 18 19 20 21 21 21 21 21 21 21 21 21 21 22 22 21 21 21 20 20 19 20 20 21 21 21 23 26 28 30 31
7 7 6 7 8 10 12 13 15 16 17 19 20 21 22 22 23 22 22 22 23 22 22 22 23 23 23 23 22 23 22 22 21 21 21 21 21 21 21 23 25 27 30
8 8 9 10 11 13 14 16 18 19 20 21 22 23 23 23 24 23 23 23 23 23 23 22 22 22 23 23 23 23 23 23 23 23 22 22 22 23 22 22 23 25 27
9 10 11 12 13 14 16 17 19 20 21 22 23 23 23 24 24 24 24 24 24 24 23 22 22 21 22 23 23 22 22 22 23 23 23 23 23 23 24 24 25 26 26
10 10 11 12 13 15 16 17 18 19 20 21 22 22 23 23 23 23 23 24 24 24 23 22 21 20 20 21 21 21 21 21 21 21 22 22 23 23 24 24 25 26 27
11 11 12 12 13 14 15 16 17 17 18 19 19 20 21 21 21 21 21 22 23 23 22 21 21 20 19 19 19 19 19 19 19 19 20 21 21 22 23 24 24 25 26
13 13 14 14 15 15 16 16 16 16 16 16 17 17 18 18 19 19 20 20 21 22 22 22 21 20 20 19 18 17 17 17 17 17 18 19 20 21 22 23 24 25 26
15 16 16 17 17 17 18 18 17 16 16 15 15 15 15 16 16 17 17 18 18 19 20 20 20 20 20 19 17 16 15 15 15 16 16 17 19 20 21 23 24 26 27
17 18 18 19 19 19 19 19 19 17 16 16 14 14 13 12 12 12 13 13 14 15 16 17 18 18 18 17 17 16 14 14 14 15 16 17 18 19 20 21 23 24 26
18 19 19 20 20 21 21 21 21 19 18 17 15 13 12 11 10 10 10 10 10 9 9 11 13 14 15 15 15 15 14 13 13 14 14 15 16 17 18 20 21 22 24
18 19 19 21 21 22 22 22 21 21 20 19 18 17 15 14 13 12 10 7 4 1 3 5 8 9 10 11 11 10 10 10 10 11 11 12 14 15 16 18 19 21 24
17 17 18 20 21 22 23 23 23 22 22 22 21 21 20 19 18 18 16 13 11 10 8 7 7 7 7 7 6 5 4 4 5 6 7 9 10 12 15 17 19 22 24
16 17 18 19 20 21 22 22 23 24 24 23 23 23 23 22 22 22 21 20 19 18 17 15 14 12 11 10 8 6 4 2 1 3 5 7 9 11 14 16 18 20 23
15 16 17 18 19 19 20 21 22 23 24 24 24 25 25 24 24 25 25 24 23 22 22 21 20 18 16 14 12 10 8 7 5 5 6 7 9 10 12 14 16 18 20
14 15 15 16 17 18 19 19 21 21 22 23 25 25 26 26 26 27 27 26 26 25 24 23 22 21 19 17 15 13 12 11 10 9 9 9 10 11 12 14 16 18 19
14 14 14 15 15 16 17 18 19 20 21 21 22 23 23 24 24 25 25 25 24 24 23 22 21 19 18 17 15 14 13 13 12 12 12 12 12 13 14 15 16 18 19
13 14 14 14 14 15 15 16 17 17 18 19 19 20 20 21 21 22 22 22 21 21 20 20 18 17 16 15 14 13 13 13 13 13 13 13 14 15 16 17 18 19 20
11 12 13 14 14 14 14 14 14 14 15 15 16 16 17 17 18 18 19 19 19 18 18 18 17 16 15 14 14 13 13 13 13 13 13 14 15 16 17 18 19 21 22
8 10 11 13 13 13 13 13 13 13 13 13 13 13 14 14 15 16 16 16 16 16 16 16 16 16 15 14 13 12 12 12 12 13 13 14 15 16 17 19 20 22 23
5 7 9 11 12 13 13 12 12 12 12 12 12 11 12 12 13 14 14 14 15 15 15 15 15 16 16 15 14 13 13 13 13 13 14 14 15 16 18 19 21 22 23
4 5 6 8 10 12 12 12 12 11 11 11 11 10 10 10 11 12 12 13 13 13 13 13 14 14 15 15 15 15 14 14 14 14 15 15 16 17 18 19 21 22 23
Wind_Direction
257 260 259 255 250 241 230 225 228 230 240 251 258 263 265 267 269 271 272 272 272 270 269 268 267 266 265 266 265 263 260 254 249 245 246 245 242 240 241 244 245 246 245
245 244 237 223 216 215 214 222 230 243 254 259 262 265 266 269 272 273 274 273 272 270 268 267 266 264 264 263 262 260 258 255 250 245 242 243 241 237 238 241 244 244 244
166 161 165 165 178 201 225 239 251 260 263 264 267 268 270 273 275 276 276 275 273 271 269 267 265 264 262 261 260 255 254 256 252 245 243 244 243 238 237 239 242 243 244
94 89 99 126 261 269 270 271 269 268 270 272 272 273 274 275 278 279 279 276 273 270 269 266 264 263 262 261 259 256 253 254 253 247 244 244 243 240 239 240 242 244 245
41 31 356 326 309 300 290 283 278 276 276 276 276 276 277 277 279 279 278 277 275 272 269 266 263 262 261 259 258 256 253 253 254 251 248 248 246 245 244 242 243 244 244
17 4 349 335 317 303 297 289 286 285 282 279 278 277 277 277 277 277 277 277 275 273 269 266 263 261 259 257 256 255 253 253 253 251 251 253 251 252 252 249 248 245 245
1 349 334 322 313 306 300 295 291 287 285 282 281 279 278 276 275 274 273 274 273 271 269 266 263 261 260 258 256 254 252 252 253 254 255 256 256 257 259 256 253 252 250
347 336 326 317 310 305 300 294 291 288 286 284 281 279 278 277 276 275 274 273 272 270 268 267 264 261 260 258 256 255 253 252 252 253 255 256 257 258 261 261 259 258 257
342 332 325 318 312 307 303 299 295 291 288 286 283 281 280 279 278 275 273 272 271 269 268 265 263 261 258 256 255 254 254 254 253 254 255 257 258 260 261 262 261 260 259
346 338 329 322 317 313 309 306 302 298 294 290 287 284 283 281 279 276 274 272 270 269 266 263 260 259 256 255 253 252 252 253 254 255 255 257 258 259 261 262 262 262 262
1 354 347 341 336 331 325 319 314 308 303 298 293 289 286 284 281 278 274 272 269 267 265 261 257 255 253 252 251 250 250 252 254 255 257 258 259 260 261 262 262 262 262
19 13 8 2 356 351 345 339 332 326 318 311 304 298 294 289 284 281 277 274 270 266 263 260 254 251 248 248 249 249 249 252 256 258 260 262 263 263 264 265 266 266 266
29 25 20 15 9 4 358 353 347 341 336 328 319 311 305 299 291 286 281 278 272 267 263 258 251 247 245 242 243 246 248 251 256 262 267 269 270 270 271 271 271 270 269
34 30 26 22 18 13 9 5 360 354 350 344 336 330 324 318 311 302 295 289 279 270 262 254 247 242 238 236 237 242 246 252 260 267 271 274 276 277 278 277 277 276 276
35 33 29 25 23 19 16 13 12 11 9 8 5 1 355 350 342 332 321 308 292 277 258 242 232 230 230 231 234 240 247 255 264 271 275 278 280 282 284 284 284 283 282
34 33 31 28 27 26 25 24 24 25 27 28 29 28 26 20 14 12 6 360 353 311 219 205 204 207 213 218 223 233 244 256 266 273 279 283 286 288 290 290 290 290 290
32 31 30 30 30 31 32 33 35 36 37 38 39 39 39 39 40 42 47 55 64 73 91 122 145 158 167 177 188 202 222 247 269 285 293 296 298 299 300 300 299 298 297
30 30 31 32 33 35 37 38 40 41 42 44 45 46 48 50 52 53 58 65 71 77 84 93 102 110 116 120 121 117 111 96 14 336 328 322 318 316 315 312 310 308 306
28 30 31 34 36 38 40 41 43 44 45 48 49 51 53 56 60 62 66 70 74 78 83 86 90 93 96 97 94 89 81 70 50 24 5 352 345 339 336 333 330 327 322
28 29 32 35 37 39 41 42 44 46 48 51 53 55 57 61 65 67 68 71 74 77 81 83 85 87 87 86 83 78 74 67 59 50 41 31 19 10 3 357 351 345 339
29 30 32 34 37 40 42 43 45 48 51 53 55 57 60 62 64 66 68 71 73 75 77 78 79 79 79 79 77 75 71 66 61 54 48 40 31 23 15 9 4 360 355
31 33 34 34 35 37 39 41 44 47 50 53 55 58 60 62 63 65 67 68 70 71 72 73 73 73 73 73 71 68 65 60 56 51 46 42 37 32 26 21 16 12 7
32 32 32 31 31 32 34 36 39 42 46 49 52 55 58 60 61 62 63 64 65 65 65 65 64 63 62 61 60 59 56 53 49 45 41 37 33 30 27 24 21 17 14
27 26 27 27 27 26 28 30 34 38 40 43 46 50 53 55 56 56 56 57 57 58 57 57 56 54 52 49 47 45 43 40 36 32 30 28 26 24 22 20 19 18 16
9 16 17 19 20 20 19 20 24 29 33 35 39 43 47 50 52 53 53 52 51 50 49 48 48 47 45 43 41 39 36 32 27 23 21 19 18 17 16 15 16 16 17
330 347 360 6 10 12 13 13 15 19 24 28 31 35 41 45 47 48 48 47 45 45 44 44 44 43 41 39 38 36 33 29 25 20 17 15 14 13 13 14 15 15 16